GW7159 Weather Reports


Display with metric or nautical units.
time (UTC)temp
F
wind
direction
speed
MPH
gust
MPH
rain 1hr
in
rain 24hr
in
rain mn
in
humidity
%
barometer
mb
20260506165009 65 306 1.0 3.0 0.00 0.00 0.00 44 1019.6
20260506164530 63 36 1.0 4.0 0.00 0.00 0.00 45 1019.6
20260506164013 64 40 2.0 5.0 0.00 0.00 0.00 45 1019.6
20260506163511 64 47 3.0 5.0 0.00 0.00 0.00 45 1019.6
20260506163031 64 143 1.0 3.0 0.00 0.00 0.00 46 1019.7
20260506162508 63 113 2.0 5.0 0.00 0.00 0.00 48 1019.6
20260506162011 63 165 1.0 5.0 0.00 0.00 0.00 46 1019.6
20260506161537 63 145 2.0 4.0 0.00 0.00 0.00 48 1019.6
20260506161013 62 121 1.0 4.0 0.00 0.00 0.00 49 1019.6
20260506160511 61 82 2.0 7.0 0.00 0.00 0.00 49 1019.6
20260506160040 62 142 3.0 7.0 0.00 0.00 0.00 50 1019.7
20260506155511 61 100 2.0 4.0 0.00 0.00 0.00 52 1019.7
20260506155011 60 86 2.0 4.0 0.00 0.00 0.00 52 1019.7
20260506154532 59 133 0.0 4.0 0.00 0.00 0.00 53 1019.7
20260506154011 60 125 2.0 4.0 0.00 0.00 0.00 54 1019.7
20260506153509 59 124 1.0 4.0 0.00 0.00 0.00 55 1019.7
20260506153029 59 71 2.0 4.0 0.00 0.00 0.00 56 1019.6
20260506152509 58 110 0.0 2.0 0.00 0.00 0.00 57 1019.5
20260506152012 58 116 0.0 3.0 0.00 0.00 0.00 56 1019.6
20260506151535 58 129 0.0 3.0 0.00 0.00 0.00 57 1019.6
20260506151013 57 178 0.0 2.0 0.00 0.00 0.00 57 1019.6
20260506150513 57 111 1.0 3.0 0.00 0.00 0.00 59 1019.6
20260506150033 56 141 1.0 3.0 0.00 0.00 0.00 59 1019.5
20260506145507 56 138 2.0 3.0 0.00 0.00 0.00 60 1019.5
20260506145012 56 221 1.0 4.0 0.00 0.00 0.00 59 1019.6
20260506144529 56 204 1.0 5.0 0.00 0.00 0.00 61 1019.5
20260506144018 55 223 1.0 8.0 0.00 0.00 0.00 62 1019.5
20260506143510 54 213 2.0 8.0 0.00 0.00 0.00 64 1019.5
20260506143041 54 227 3.0 6.0 0.00 0.00 0.00 65 1019.3
20260506142509 53 293 2.0 6.0 0.00 0.00 0.00 66 1019.3
20260506142009 53 235 2.0 9.0 0.00 0.00 0.00 66 1019.5
20260506141529 52 252 3.0 9.0 0.00 0.00 0.00 67 1019.3
20260506141009 52 236 3.0 8.0 0.00 0.00 0.00 68 1019.3
20260506140511 52 230 3.0 8.0 0.00 0.00 0.00 68 1019.3
20260506140033 52 262 3.0 8.0 0.00 0.00 0.00 68 1019.2
20260506135509 51 237 2.0 8.0 0.00 0.00 0.00 68 1019.2
20260506135009 51 265 2.0 9.0 0.00 0.00 0.00 69 1019.2
20260506134531 51 232 4.0 9.0 0.00 0.00 0.00 70 1019.1
20260506134014 50 225 3.0 8.0 0.00 0.00 0.00 71 1018.9
20260506133510 50 220 4.0 8.0 0.00 0.00 0.00 71 1018.9
20260506133031 50 222 2.0 8.0 0.00 0.00 0.00 71 1018.8
20260506132516 50 203 4.0 8.0 0.00 0.00 0.00 72 1018.8
20260506132009 50 217 3.0 9.0 0.00 0.00 0.00 72 1018.8
20260506131529 49 225 3.0 10.0 0.00 0.00 0.00 72 1018.7
20260506131008 49 249 4.0 10.0 0.00 0.00 0.00 73 1018.7
20260506130515 49 225 5.0 10.0 0.00 0.00 0.00 73 1018.7
20260506130030 49 229 4.0 10.0 0.00 0.00 0.00 73 1018.7
20260506125508 49 232 4.0 10.0 0.00 0.00 0.00 73 1018.7
20260506125008 49 233 5.0 10.0 0.00 0.00 0.00 73 1018.7
20260506124529 49 231 5.0 9.0 0.00 0.00 0.00 72 1018.8
20260506124010 49 242 4.0 6.0 0.00 0.00 0.00 72 1018.8
20260506123510 49 235 1.0 2.0 0.00 0.00 0.00 71 1018.8
20260506123029 50 0 0.0 3.0 0.00 0.00 0.00 70 1018.8
20260506122509 50 257 1.0 6.0 0.00 0.00 0.00 70 1018.7
20260506122013 50 252 2.0 8.0 0.00 0.00 0.00 70 1018.7
20260506121528 50 238 3.0 8.0 0.00 0.00 0.00 70 1018.6
20260506121009 50 261 4.0 8.0 0.00 0.00 0.00 70 1018.6
20260506120514 50 252 3.0 8.0 0.00 0.00 0.00 70 1018.5
20260506120032 51 232 2.0 9.0 0.00 0.00 0.00 69 1018.5
20260506115511 51 232 4.0 11.0 0.00 0.00 0.00 69 1018.4
20260506115012 51 247 5.0 11.0 0.00 0.00 0.00 69 1018.4
20260506114539 51 234 4.0 11.0 0.00 0.00 0.00 68 1018.3
20260506114007 51 252 4.0 8.0 0.00 0.00 0.00 68 1018.3
20260506113512 51 225 3.0 8.0 0.00 0.00 0.00 69 1018.3
20260506113030 50 257 3.0 10.0 0.00 0.00 0.00 69 1018.2
20260506112511 51 220 4.0 10.0 0.00 0.00 0.00 68 1018.2
20260506112012 51 231 4.0 12.0 0.00 0.00 0.00 68 1018.2
20260506111527 51 240 3.0 13.0 0.00 0.00 0.00 67 1018.3
20260506111008 51 234 7.0 13.0 0.00 0.00 0.00 67 1018.3
20260506110516 51 246 5.0 13.0 0.00 0.00 0.00 67 1018.2
20260506110035 51 225 5.0 13.0 0.00 0.00 0.00 67 1018.3
20260506105511 52 236 7.0 17.0 0.00 0.00 0.00 66 1018.2
20260506105013 52 252 6.0 17.0 0.00 0.00 0.00 66 1018.2
20260506104531 52 293 7.0 15.0 0.00 0.00 0.00 66 1018.2
20260506104007 52 268 5.0 12.0 0.00 0.00 0.00 66 1018.2
20260506103511 52 242 5.0 12.0 0.00 0.00 0.00 66 1018.1
20260506103030 52 264 7.0 12.0 0.00 0.00 0.00 66 1018.0
20260506102509 52 224 5.0 17.0 0.00 0.00 0.00 66 1018.1
20260506102009 52 276 6.0 17.0 0.00 0.00 0.00 66 1018.1
20260506101545 52 243 8.0 17.0 0.00 0.00 0.00 66 1018.1
20260506101013 52 260 8.0 15.0 0.00 0.00 0.00 67 1018.0
20260506100513 52 256 6.0 14.0 0.00 0.00 0.00 66 1018.0
20260506100028 52 228 5.0 14.0 0.00 0.00 0.00 67 1017.9
20260506095512 52 276 6.0 16.0 0.00 0.00 0.00 67 1018.0
20260506095011 52 211 7.0 16.0 0.00 0.00 0.00 66 1018.0
20260506094528 52 246 7.0 14.0 0.00 0.00 0.00 67 1017.9
20260506094010 52 259 7.0 14.0 0.00 0.00 0.00 67 1018.0
20260506093514 52 230 4.0 11.0 0.00 0.00 0.00 67 1018.0
20260506093028 52 241 5.0 11.0 0.00 0.00 0.00 67 1017.9
20260506092510 51 248 3.0 9.0 0.00 0.00 0.00 67 1018.0
20260506092014 51 205 4.0 11.0 0.00 0.00 0.00 67 1017.9
20260506091530 52 223 5.0 13.0 0.00 0.00 0.00 66 1018.0
20260506091010 52 265 6.0 16.0 0.00 0.00 0.00 65 1018.0
20260506090507 52 207 6.0 16.0 0.00 0.00 0.00 65 1017.9
20260506090030 52 237 6.0 14.0 0.00 0.00 0.00 65 1018.0
20260506085509 52 225 6.0 11.0 0.00 0.00 0.00 65 1018.1
20260506085012 52 205 4.0 10.0 0.00 0.00 0.00 65 1018.2
20260506084530 53 261 5.0 11.0 0.00 0.00 0.00 64 1018.2
20260506084009 53 249 3.0 11.0 0.00 0.00 0.00 63 1018.2
20260506083512 53 238 3.0 11.0 0.00 0.00 0.00 63 1018.1
20260506083029 52 220 5.0 15.0 0.00 0.00 0.00 64 1018.1
20260506082509 52 240 3.0 15.0 0.00 0.00 0.00 64 1018.2
20260506082014 52 219 6.0 17.0 0.00 0.00 0.00 64 1018.1
20260506081528 53 242 6.0 17.0 0.00 0.00 0.00 64 1018.2
20260506081013 53 234 6.0 16.0 0.00 0.00 0.00 63 1018.3
20260506080511 53 229 7.0 16.0 0.00 0.00 0.00 63 1018.3
20260506073509 52 269 6.0 14.0 0.00 0.00 0.00 65 1018.3
20260506073028 52 221 6.0 14.0 0.00 0.00 0.00 65 1018.3
20260506072517 52 218 7.0 16.0 0.00 0.00 0.00 64 1018.3
20260506072009 52 247 6.0 16.0 0.00 0.00 0.00 64 1018.2
20260506071530 52 252 5.0 12.0 0.00 0.00 0.00 64 1018.2
20260506071010 52 241 4.0 11.0 0.00 0.00 0.00 63 1018.2
20260506070509 52 247 5.0 15.0 0.00 0.00 0.00 64 1018.1
20260506062511 52 244 5.0 12.0 0.00 0.00 0.00 65 1017.6
20260506062009 52 185 6.0 13.0 0.00 0.00 0.00 65 1017.6
20260506061530 52 229 5.0 13.0 0.00 0.00 0.00 65 1017.6
20260506061016 52 198 7.0 13.0 0.00 0.00 0.00 65 1017.5
20260506060510 52 209 5.0 10.0 0.00 0.00 0.00 65 1017.7
20260506051012 53 225 4.0 8.0 0.00 0.00 0.00 65 1017.4
20260506050513 53 244 3.0 11.0 0.00 0.00 0.00 64 1017.5
20260506045009 53 188 5.0 9.0 0.00 0.00 0.00 65 1017.2
20260506044528 53 190 4.0 13.0 0.00 0.00 0.00 65 1017.2
20260506044017 53 219 4.0 13.0 0.00 0.00 0.00 65 1017.0
20260506043510 53 217 5.0 12.0 0.00 0.00 0.00 65 1016.9
20260506043028 53 210 5.0 12.0 0.00 0.00 0.00 65 1016.9
20260506042510 53 201 4.0 11.0 0.00 0.00 0.00 65 1016.8
20260506042019 53 227 6.0 12.0 0.00 0.00 0.00 64 1016.8
20260506041537 53 251 6.0 12.0 0.00 0.00 0.00 65 1016.8
20260506041009 53 254 5.0 11.0 0.00 0.00 0.00 64 1016.8
20260506040513 53 211 4.0 12.0 0.00 0.00 0.00 64 1016.9
20260506040031 54 240 4.0 12.0 0.00 0.00 0.00 64 1016.8
20260506035508 54 230 4.0 11.0 0.00 0.00 0.00 63 1016.7
20260506035010 54 240 3.0 11.0 0.00 0.00 0.00 63 1016.7
20260506034530 54 224 4.0 11.0 0.00 0.00 0.00 63 1016.6
20260506034009 54 229 5.0 10.0 0.00 0.00 0.00 63 1016.6
20260506033509 54 240 2.0 9.0 0.00 0.00 0.00 63 1016.5
20260506033031 54 248 4.0 10.0 0.00 0.00 0.00 63 1016.6
20260506032513 54 194 4.0 10.0 0.00 0.00 0.00 63 1016.6
20260506032010 54 195 4.0 10.0 0.00 0.00 0.00 63 1016.5
20260506031531 55 179 4.0 10.0 0.00 0.00 0.00 62 1016.5
20260506031009 55 236 5.0 10.0 0.00 0.00 0.00 62 1016.3
20260506030513 55 207 3.0 7.0 0.00 0.00 0.00 61 1016.2
20260506030033 55 244 3.0 10.0 0.00 0.00 0.00 61 1016.2
20260506025508 55 233 4.0 11.0 0.00 0.00 0.00 61 1016.1
20260506025010 55 223 5.0 12.0 0.00 0.00 0.00 61 1016.1
20260506024527 55 230 5.0 12.0 0.00 0.00 0.00 61 1016.1
20260506024010 56 237 5.0 12.0 0.00 0.00 0.00 61 1015.9
20260506023510 56 221 6.0 12.0 0.00 0.00 0.00 60 1015.8
20260506023029 56 283 5.0 14.0 0.00 0.00 0.00 60 1015.8
20260506022509 56 271 5.0 14.0 0.00 0.00 0.00 59 1015.7
20260506022011 57 231 6.0 12.0 0.00 0.00 0.00 59 1015.6
20260506021528 57 236 5.0 14.0 0.00 0.00 0.00 59 1015.7
20260506021010 57 267 8.0 15.0 0.00 0.00 0.00 58 1015.6
20260506020513 57 265 9.0 15.0 0.00 0.00 0.00 59 1015.5
20260506020030 57 241 5.0 16.0 0.00 0.00 0.00 58 1015.5
20260506015510 58 248 8.0 16.0 0.00 0.00 0.00 58 1015.5
20260506015010 58 259 7.0 16.0 0.00 0.00 0.00 57 1015.4
20260506014541 58 248 7.0 16.0 0.00 0.00 0.00 57 1015.5
20260506014009 59 253 7.0 15.0 0.00 0.00 0.00 56 1015.5
20260506013510 59 259 5.0 15.0 0.00 0.00 0.00 57 1015.5
20260506013030 59 236 8.0 18.0 0.00 0.00 0.00 56 1015.5
20260506012510 59 199 8.0 18.0 0.00 0.00 0.00 56 1015.6
20260506012009 60 260 9.0 18.0 0.00 0.00 0.00 54 1015.4
20260506011528 60 247 8.0 16.0 0.00 0.00 0.00 54 1015.4
20260506011008 60 259 9.0 19.0 0.00 0.00 0.00 54 1015.3
20260506010510 60 240 8.0 19.0 0.00 0.00 0.00 53 1015.4
20260506010030 60 212 8.0 17.0 0.00 0.00 0.00 53 1015.4
20260506005510 60 242 9.0 17.0 0.00 0.00 0.00 53 1015.3
20260506005015 61 300 10.0 17.0 0.00 0.00 0.00 52 1015.2
20260506004537 61 232 8.0 17.0 0.00 0.00 0.00 52 1015.1
20260506004010 61 251 9.0 17.0 0.00 0.00 0.00 52 1015.0
20260506003510 61 242 10.0 17.0 0.00 0.00 0.00 51 1014.9
20260506003027 62 213 11.0 16.0 0.00 0.00 0.00 49 1014.9
20260506002511 62 268 7.0 18.0 0.00 0.00 0.00 50 1014.8
20260506002010 62 219 7.0 22.0 0.00 0.00 0.00 50 1014.8
20260506001528 63 234 9.0 20.0 0.00 0.00 0.00 49 1014.7
20260506001008 63 264 8.0 19.0 0.00 0.00 0.00 48 1014.7
20260506000509 63 265 9.0 17.0 0.00 0.00 0.00 48 1014.6
20260506000036 64 258 11.0 17.0 0.00 0.00 0.00 47 1014.6
20260505235514 64 230 8.0 20.0 0.00 0.00 0.00 47 1014.5
20260505235010 64 206 13.0 20.0 0.00 0.00 0.00 46 1014.5
20260505234528 64 223 9.0 21.0 0.00 0.00 0.00 45 1014.5
20260505234006 64 204 12.0 21.0 0.00 0.00 0.00 46 1014.4
20260505233516 65 245 11.0 21.0 0.00 0.00 0.00 45 1014.5
20260505233027 65 248 8.0 19.0 0.00 0.00 0.00 45 1014.5
20260505232512 65 227 9.0 19.0 0.00 0.00 0.00 45 1014.3
20260505232007 65 219 8.0 23.0 0.00 0.00 0.00 46 1014.3
20260505231529 64 250 9.0 23.0 0.00 0.00 0.00 46 1014.4
20260505231011 64 246 10.0 21.0 0.00 0.00 0.00 47 1014.5
20260505230514 65 215 8.0 21.0 0.00 0.00 0.00 47 1014.5
20260505230033 64 233 11.0 19.0 0.00 0.00 0.00 47 1014.5
20260505225511 64 251 8.0 19.0 0.00 0.00 0.00 47 1014.6
20260505225012 64 254 9.0 20.0 0.00 0.00 0.00 48 1014.5
20260505224536 63 252 8.0 20.0 0.00 0.00 0.00 48 1014.5
20260505224013 64 267 11.0 20.0 0.00 0.00 0.00 47 1014.6
20260505223514 65 208 11.0 19.0 0.00 0.00 0.00 46 1014.6
20260505223039 65 271 9.0 18.0 0.00 0.00 0.00 45 1014.7
20260505222507 65 216 8.0 18.0 0.00 0.00 0.00 45 1014.7
20260505222012 65 267 10.0 17.0 0.00 0.00 0.00 44 1014.5
20260505221529 65 277 10.0 17.0 0.00 0.00 0.00 44 1014.5
20260505221012 65 257 10.0 17.0 0.00 0.00 0.00 46 1014.6
20260505220508 64 239 10.0 19.0 0.00 0.00 0.00 45 1014.7
20260505220037 66 213 9.0 19.0 0.00 0.00 0.00 44 1014.7
20260505215515 66 229 10.0 19.0 0.00 0.00 0.00 44 1014.7
20260505215009 65 244 6.0 18.0 0.00 0.00 0.00 44 1014.7
20260505214547 65 257 10.0 18.0 0.00 0.00 0.00 44 1014.7
20260505214010 65 259 9.0 19.0 0.00 0.00 0.00 44 1014.7
20260505213510 66 245 8.0 19.0 0.00 0.00 0.00 44 1014.9
20260505213048 67 288 11.0 19.0 0.00 0.00 0.00 44 1014.9
20260505212509 65 205 7.0 20.0 0.00 0.00 0.00 44 1014.8
20260505212014 65 227 11.0 20.0 0.00 0.00 0.00 45 1014.8
20260505211530 65 218 10.0 20.0 0.00 0.00 0.00 45 1015.1
20260505211010 64 249 7.0 17.0 0.00 0.00 0.00 47 1014.9
20260505210510 63 234 7.0 20.0 0.00 0.00 0.00 48 1014.9
20260505210031 62 252 10.0 20.0 0.00 0.00 0.00 49 1014.9
20260505205518 63 270 8.0 23.0 0.00 0.00 0.00 48 1015.0
20260505205016 62 220 13.0 23.0 0.00 0.00 0.00 48 1014.9
20260505204533 64 198 10.0 19.0 0.00 0.00 0.00 48 1014.9
20260505204011 63 225 11.0 19.0 0.00 0.00 0.00 47 1014.8
20260505203510 64 186 8.0 16.0 0.00 0.00 0.00 47 1014.9
20260505203028 64 225 7.0 17.0 0.00 0.00 0.00 47 1014.9
20260505202509 63 202 7.0 17.0 0.00 0.00 0.00 48 1015.0
20260505202009 63 239 7.0 16.0 0.00 0.00 0.00 48 1014.9
20260505201544 64 231 5.0 16.0 0.00 0.00 0.00 47 1015.0
20260505201009 62 272 6.0 16.0 0.00 0.00 0.00 48 1014.9
20260505200512 62 241 6.0 16.0 0.00 0.00 0.00 47 1015.0
20260505200030 63 238 8.0 15.0 0.00 0.00 0.00 48 1015.0
20260505195512 65 269 6.0 14.0 0.00 0.00 0.00 45 1015.0
20260505195010 65 265 6.0 14.0 0.00 0.00 0.00 45 1015.1
20260505194531 63 246 9.0 14.0 0.00 0.00 0.00 47 1015.1
20260505194017 62 250 5.0 13.0 0.00 0.00 0.00 48 1015.2
20260505193509 62 248 5.0 13.0 0.00 0.00 0.00 47 1015.1
20260505193042 63 229 6.0 20.0 0.00 0.00 0.00 47 1015.2
20260505192509 62 217 6.0 20.0 0.00 0.00 0.00 49 1015.2
20260505192008 61 270 11.0 20.0 0.00 0.00 0.00 49 1015.3
20260505191527 61 247 9.0 17.0 0.00 0.00 0.00 49 1015.3
20260505191009 62 276 6.0 20.0 0.00 0.00 0.00 49 1015.2
20260505190509 62 269 8.0 20.0 0.00 0.00 0.00 49 1015.2
20260505190035 62 289 7.0 17.0 0.00 0.00 0.00 48 1015.2
20260505185515 62 279 7.0 17.0 0.00 0.00 0.00 49 1015.2
20260505185010 61 248 9.0 17.0 0.00 0.00 0.00 50 1015.2
20260505184529 61 232 5.0 17.0 0.00 0.00 0.00 50 1015.2
20260505184010 61 215 4.0 17.0 0.00 0.00 0.00 51 1015.1
20260505183507 61 239 9.0 17.0 0.00 0.00 0.00 50 1015.3
20260505183045 60 270 8.0 15.0 0.00 0.00 0.00 53 1015.2
20260505182508 59 219 8.0 13.0 0.00 0.00 0.00 54 1015.2
20260505182012 58 240 5.0 12.0 0.00 0.00 0.00 54 1015.3
20260505181529 58 235 6.0 15.0 0.00 0.00 0.00 54 1015.2
20260505181016 58 260 7.0 15.0 0.00 0.00 0.00 54 1015.2
20260505180507 59 267 7.0 15.0 0.00 0.00 0.00 53 1015.2
20260505180035 59 264 5.0 13.0 0.00 0.00 0.00 52 1015.2
20260505175510 59 227 4.0 13.0 0.00 0.00 0.00 53 1015.0
20260505175008 59 238 5.0 14.0 0.00 0.00 0.00 52 1015.1
20260505174537 60 229 7.0 17.0 0.00 0.00 0.00 52 1014.9
20260505174011 60 279 9.0 17.0 0.00 0.00 0.00 52 1014.8
20260505173507 60 238 7.0 14.0 0.00 0.00 0.00 52 1014.9
20260505173037 60 259 8.0 15.0 0.00 0.00 0.00 52 1014.9
20260505172507 59 246 7.0 15.0 0.00 0.00 0.00 54 1014.8
20260505172020 58 271 8.0 14.0 0.00 0.00 0.00 54 1014.9
20260505171536 58 287 6.0 14.0 0.00 0.00 0.00 54 1014.8
20260505171011 58 282 4.0 14.0 0.00 0.00 0.00 55 1014.9
20260505170512 59 248 8.0 15.0 0.00 0.00 0.00 55 1014.9
20260505170029 58 289 6.0 15.0 0.00 0.00 0.00 55 1014.9
20260505165509 58 300 6.0 15.0 0.00 0.00 0.00 56 1014.8